Location: Chacón
(10.5789°N, 66.9317°W)
Time: 21:05:06
(UTC+00:00)

Nadezhda 3 Rocket - Pass Details

Date: 23 May 2024
Orbit: 956 x 998 km, 82.9° (Epoch: 25 June)

Event Time Altitude Azimuth Distance (km) Brightness Sun altitude
Rises 08:40:03 0° 342° (NNW) 3,695 7.1 -19.9°
Reaches altitude 10° 08:42:45 10° 334° (NNW) 2,742 6.4 -19.3°
Maximum altitude 08:48:28 38° 269° (W) 1,459 4.5 -18.0°
Enters shadow 08:51:47 22° 217° (SW) 1,977 5.1 -17.3°
